Regional Weather Roundup
Issued by NWS Wilmington, NC

Home | Current Version | Previous Version | Text Only | Print | Product List | Glossary On
Versions: 1 2 3 4 5 6 7 8 9 10 11 12 13 14 15 16 17 18 19 20 21 22 23 24 25 26 27 28 29 30 31 32 33 34 35 36 37 38 39 40 41 42 43 44 45 46 47 48 49 50
000
ASUS42 KILM 282013
RWRILM
RWRILM
REGIONAL HOURLY WEATHER ROUNDUP
NATIONAL WEATHER SERVICE WILMINGTON NC
400 PM EDT SAT MAY 28 2016

NOTE: "FAIR" INDICATES FEW OR NO CLOUDS BELOW 12,000 FEET WITH NO
SIGNIFICANT WEATHER AND/OR OBSTRUCTIONS TO VISIBILITY.

...............WFO WILMINGTON COUNTY WARNING AREA...............

......COASTAL NC AND SC COUNTIES......

CITY           SKY/WX    TMP DP  RH WIND       PRES   REMARKS
WILMINGTON     PTSUNNY   79  68  69 E17G25    30.12F
N MYRTLE BEACH LGT RAIN  73  67  81 NE7       30.11S
MYRTLE BEACH   LGT RAIN  73  64  73 E17       30.13  FOG

......INLAND NC AND SC COUNTIES.......

CITY           SKY/WX    TMP DP  RH WIND       PRES   REMARKS
LUMBERTON      CLOUDY    86  63  45 E6        30.10F
ELIZABETHTOWN  CLOUDY    81  67  63 CALM      30.11F
WHITEVILLE     CLOUDY    81  67  62 E7        30.11S
FLORENCE       CLOUDY    82  64  54 SE7       30.11F
DARLINGTON     CLOUDY    84  64  50 E7        30.11F
KINGSTREE      RAIN      73  68  83 E5        30.11F
HARTSVILLE     FAIR      82  61  47 E7        30.10F
BENNETTSVILLE  FAIR      88  61  40 CALM      30.10F
CONWAY         LGT RAIN  72  70  94 CALM      30.11F
GEORGETOWN     NOT AVBL
MARION         RAIN      75  68  78 SE3       30.11S

....................REST OF NORTH CAROLINA......................

.........EASTERN NC.........

CITY           SKY/WX    TMP DP  RH WIND       PRES   REMARKS
CAPE HATTERAS  PTSUNNY   82  69  64 NE6       30.15F
JACKSONVILLE   PTSUNNY   82  70  66 E9        30.13F
MOREHEAD CITY  MOSUNNY   82  68  62 NE8       30.13F
KENANSVILLE    CLOUDY    77  64  65 E7        30.15S
NEW BERN       SUNNY     84  63  49 E10       30.14F
ELIZABETH CITY SUNNY     82  64  54 SE14      30.17F

.........CENTRAL NC.........

CITY           SKY/WX    TMP DP  RH WIND       PRES   REMARKS
RALEIGH DURHAM MOSUNNY   86  58  38 VRB7      30.14F
ROCKY MOUNT    SUNNY     87  61  41 VRB6      30.13F
ROANOKE RAPIDS NOT AVBL
FAYETTEVILLE   CLOUDY    87  63  44 SE10      30.11F
HOFFMAN        PTSUNNY   86  54  33 E10       30.10F

.........WESTERN NC.........

CITY           SKY/WX    TMP DP  RH WIND       PRES   REMARKS
CHARLOTTE      PTSUNNY   84  56  38 VRB3      30.14F
GREENSBORO     PTSUNNY   84  56  38 E8        30.14F
HICKORY        NOT AVBL
BOONE          NOT AVBL
ASHEVILLE      NOT AVBL

.....................REST OF SOUTH CAROLINA.....................

.........EASTERN SC.........

CITY           SKY/WX    TMP DP  RH WIND       PRES   REMARKS
CHARLESTON     RAIN      70  67  90 NE9       30.10F FOG
BEAUFORT MCAS  RAIN      71  68  90 NE9       30.09S FOG
HILTON HEAD    RAIN      73  70  88 N12G21    30.10S

.........CENTRAL SC.........

CITY           SKY/WX    TMP DP  RH WIND       PRES   REMARKS
COLUMBIA       CLOUDY    84  64  50 NE9       30.09F
ORANGEBURG     CLOUDY    79  66  64 E8        30.10S
SUMTER SHAW    CLOUDY    81  66  59 E7        30.08F

.........WESTERN SC.........

CITY           SKY/WX    TMP DP  RH WIND       PRES   REMARKS
GREENVILLE     NOT AVBL
ROCK HILL      MOSUNNY   84  53  34 CALM      30.14F
ANDERSON       PTSUNNY   82  60  47 SE6       30.12F
CLEMSON        NOT AVBL
GREENWOOD      CLOUDY    80  62  54 NE5       30.14F


...................COASTAL AND OFFSHORE REPORTS..................

................LOCAL PIERS AND NC RESERVE................


STATION/POSITION TIME  SKY/WX   TEMP    WIND        PRES    VSBY
                                AIR SEA DIR/SP/G
                 (UTC)          (F)     (DEG/KT/KT) (MB)    (MI)
JOHNY MRCER PIER 1900            76 78   60/ 13/ 16 1019.3F
NC RESRV MASNBRO NOT AVBL
OCEAN CREST PIER NOT AVBL
SPRINGMAID  PIER 1900            76 76   50/ 17/ 22 1019.3F


................COASTAL AND OFFSHORE BUOYS................


STATION/POSITION TIME  SKY/WX   TEMP    WIND        PRES    VSBY
                                AIR SEA DIR/SP/G
                 (UTC)          (F)     (DEG/KT/KT) (MB)    (MI)
DIMNDSHOAL 41025 1950            78 78  110/ 10/ 12 1020.9F
WVE H/P(F/S)=  5/ 8 SWL H/P/D(F/S/D)=  5/120/ 8

CAPE LOOKOUT     2000            76      40/ 12/ 14 1020.1F
ONSLOW BAY 41036 NOT AVBL
ONSLOW BAY 41064 1908            76 75   70/ 10/ 14 1020.3F
ONSLOW BAY 41159 1925               75                N/A
WVE H/P(F/S)=  6/ 8

5SE WRITBC 41038 1908            76 75   70/ 14/ 17 1020.4F
MASNBO INL 41110 1906               75                N/A
WVE H/P(F/S)=  5/ 9

WILM HARBR 41108 1926               74                N/A
WVE H/P(F/S)=  4/ 9

27SE WRITB 41037 1908            77 74   80/ 14/ 17 1019.9S
FRYING PAN 41013 2000            77 77   60/ 17/ 23 1018.0F
SUNST NRSH 41024 1908            74 76   80/ 19/ 25 1019.7F
CAPRS NRSH 41029 1908            70 76   20/ 19/ 25 1017.3F
EDISTO     41004 1950            76 76   40/ 19/ 25 1015.7F
WVE H/P(F/S)=  8/ 8 SWL H/P/D(F/S/D)=  5/ 8



..........OFFSHORE BUOYS BEYOND 100 NM OFFSHORE...........
.....IN A TRIANGLE---HAT TO BERMUDA TO BAHAMAS TO HAT.....


STATION/POSITION TIME  SKY/WX   TEMP    WIND        PRES    VSBY
                                AIR SEA DIR/SP/G
                 (UTC)          (F)     (DEG/KT/KT) (MB)    (MI)
150E HAT   41001 NOT AVBL
W BERMUDA  41048 1950            77 76  130/ 14/ 16 1022.2F
WVE H/P(F/S)=  5/ 8 SWL H/P/D(F/S/D)=  3/120/ 8

ATLANTIC S 41049 1950            78 78   80/ 14/ 16 1022.5R
WVE H/P(F/S)=  4/ 6 SWL H/P/D(F/S/D)=  3/110/ 7

E BAHAMAS  41046 2000            77 81   50/ 14/ 17 1018.0F
NE BAHAMAS 41047 2000            79 80  130/ 10/ 12 1018.9R
120E CANVRL41010 1920            80 79  250/ 12/ 14 1015.0F

END



USA.gov is the U.S. government's official web portal to all federal, state and local government web resources and services.